星链-3060 (STARLINK-3060 )

导读

STARLINK-3060是美国太空探索技术公司(SpaceX)星链星座的组网卫星,于2021年9月14日发射升空,归属Starlink Group 2-14批次。星链项目旨在构建全球卫星互联网星座,该卫星服役后承担低轨卫星通信任务,为全球偏远、基础设施薄弱区域提供宽带网络接入服务,进一步扩充了星链低轨星座的规模。

基本信息
目录编号:
49155
目录名称:
STARLINK-3060
国际标识:
2021-082AB
轨道中心:
EARTH
卫星名称:
星链-3060
卫星全名:
星链-3060 (STARLINK-3060 )
卫星状态:
在轨 (已飞行1738 天)
发射日期:
2021-09-14 UTC
国别 :
美国 (US)
星等 :
--
轨道信息
数据来源 国际轨道数据 AOE轨道数据
星历时间 2026-06-18T04:04:56+0800
14小时前
查看轨道信息
2026-06-18T02:00:00+0800
16小时前
查看轨道信息
半长轴 6950.186km 6950.189km
偏心率 0.0002979 0.0003503
轨道倾角 70.000° 70.002°
近地点辐角 268.748° 274.595°
升交点赤经 1.941° 2.158°
平近点角 91.334° 337.645°
近地点 569.978km 569.617km
远地点 574.12km 574.487km
周期 96.107分钟 96.107分钟
每日圈数 14.983324 14.983314
详细信息
固有亮度:
5
最大亮度:
2.5
卫星平台:
Starlink v1.5
覆盖范围:
全球
运营商:
太空探索技术公司
运营商所在国:
美国
制造商(研发单位):
太空探索技术公司
制造商所在国:
美国
使用方式:
暂无
卫星简介
星链(Starlink)计划是由太空探索技术公司(SpaceX)提出的一个巨型低轨卫星互联网星座项目,计划在2019年至2024年间在太空搭建由约1.2万颗卫星组成的“星链”网络,其中1584颗将部署在地球上空550千米处的近地轨道,并从2020年开始工作。该卫星仍在工作。
2D轨道图
3D轨道图
轨道高度分析图
轨道倾角分析图
轨道综合分析图
查看轨道综合分析图